User: anonymous   Login
Location: Unspecified
(0.0000°N, 0.0000°E)
Time: 01:33:32
(UTC+00:00)
Language:

NOAA 4 - Orbit

View from above orbital plane
View from above orbital plane
View from above satellite
View from above satellite

Ground track
Ground track

The orbit data is extracted from the following two-line orbital elements,

1  7529U 74089A   18174.57076237 -.00000034 +00000-0 +68768-4 0  9996
2  7529 101.6963 141.8794 0009310 024.2295 107.6167 12.53120148994313
Epoch (UTC): 23 June 2018 13:41:53
Eccentricity: 0.0009310
inclination: 101.6963°
perigee height: 1444 km
apogee height: 1459 km
right ascension of ascending node: 141.8794°
argument of perigee: 24.2295°
revolutions per day: 12.53120148
mean anomaly at epoch: 107.6167°
orbit number at epoch: 99431

The dashed part of the orbit path shows where the satellite is in the earth's shadow,  

DLR